Radiation Dose at Monitoring Post of Fukushima Daini Nuclear Power Station
Date,Time,MP-1(microSv/h),MP-2(microSv/h),MP-3(microSv/h),MP-4(microSv/h),MP-5(microSv/h),MP-6(microSv/h),MP-7(microSv/h),Wind Direction,Wind Velocity(m/s),Rain
2016/10/01,00:00,0.381,0.232,0.398,0.370,0.356,0.189,0.160,south-southwest,5.1,No
2016/10/01,00:10,0.378,0.232,0.400,0.365,0.361,0.188,0.160,south-southwest,4.7,No
2016/10/01,00:20,0.382,0.232,0.398,0.369,0.357,0.189,0.161,south-southwest,4.2,No
2016/10/01,00:30,0.379,0.231,0.400,0.367,0.362,0.188,0.161,southwest,4.7,No
2016/10/01,00:40,0.380,0.232,0.400,0.369,0.358,0.188,0.160,southwest,5.3,No
2016/10/01,00:50,0.378,0.231,0.399,0.369,0.359,0.187,0.161,southwest,6.0,No
2016/10/01,01:00,0.382,0.232,0.401,0.367,0.360,0.188,0.160,southwest,5.6,No
2016/10/01,01:10,0.379,0.232,0.396,0.369,0.357,0.188,0.160,southwest,5.6,No
2016/10/01,01:20,0.381,0.232,0.401,0.366,0.361,0.189,0.160,southwest,5.5,No
2016/10/01,01:30,0.380,0.230,0.398,0.368,0.357,0.189,0.161,southwest,8.6,No
2016/10/01,01:40,0.381,0.234,0.402,0.367,0.362,0.189,0.159,southwest,7.2,No
2016/10/01,01:50,0.380,0.231,0.398,0.369,0.358,0.189,0.160,southwest,3.3,No
2016/10/01,02:00,0.379,0.233,0.399,0.367,0.361,0.188,0.160,southwest,2.6,No
2016/10/01,02:10,0.381,0.231,0.403,0.367,0.359,0.189,0.161,southwest,3.1,No
2016/10/01,02:20,0.380,0.232,0.399,0.368,0.360,0.187,0.160,southwest,2.2,No
2016/10/01,02:30,0.382,0.234,0.401,0.368,0.361,0.189,0.160,west-southwest,2.6,Yes
2016/10/01,02:40,0.380,0.231,0.399,0.369,0.359,0.188,0.159,west-southwest,2.7,Yes
2016/10/01,02:50,0.381,0.232,0.401,0.368,0.361,0.188,0.160,west,1.9,No
2016/10/01,03:00,0.381,0.232,0.400,0.369,0.359,0.190,0.161,north-northwest,1.6,Yes
2016/10/01,03:10,0.382,0.232,0.401,0.368,0.362,0.188,0.160,north,1.4,Yes
2016/10/01,03:20,0.381,0.232,0.400,0.370,0.359,0.190,0.162,north,1.4,Yes
2016/10/01,03:30,0.383,0.233,0.401,0.369,0.361,0.189,0.160,north,1.4,Yes
2016/10/01,03:40,0.381,0.232,0.401,0.372,0.360,0.189,0.159,north,2.8,No
2016/10/01,03:50,0.382,0.234,0.401,0.367,0.363,0.190,0.160,north-northwest,4.4,Yes
2016/10/01,04:00,0.382,0.232,0.401,0.371,0.359,0.190,0.162,north-northwest,4.7,Yes
2016/10/01,04:10,0.383,0.235,0.401,0.367,0.361,0.189,0.161,northwest,3.9,No
2016/10/01,04:20,0.381,0.233,0.402,0.370,0.359,0.189,0.161,north-northwest,2.5,No
2016/10/01,04:30,0.382,0.235,0.400,0.367,0.362,0.189,0.161,north-northwest,2.2,No
2016/10/01,04:40,0.380,0.232,0.401,0.370,0.358,0.189,0.161,north-northwest,1.8,No
2016/10/01,04:50,0.381,0.233,0.399,0.368,0.360,0.189,0.161,northwest,1.1,Yes
2016/10/01,05:00,0.381,0.232,0.401,0.370,0.356,0.189,0.161,north,0.9,Yes
2016/10/01,05:10,0.382,0.232,0.398,0.367,0.361,0.188,0.160,north-northeast,0.8,No
2016/10/01,05:20,0.380,0.233,0.402,0.370,0.357,0.189,0.161,east,1.5,No
2016/10/01,05:30,0.381,0.234,0.398,0.366,0.360,0.189,0.160,northeast,1.2,No
2016/10/01,05:40,0.381,0.232,0.401,0.369,0.359,0.188,0.161,north-northeast,2.0,No
2016/10/01,05:50,0.380,0.234,0.399,0.367,0.361,0.189,0.160,north,3.1,No
2016/10/01,06:00,0.381,0.231,0.402,0.371,0.357,0.188,0.161,north,4.8,No
2016/10/01,06:10,0.381,0.232,0.399,0.368,0.361,0.189,0.161,north,5.9,No
2016/10/01,06:20,0.381,0.232,0.400,0.369,0.358,0.189,0.161,north,3.9,No
2016/10/01,06:30,0.380,0.233,0.397,0.368,0.360,0.189,0.161,north,5.2,No
2016/10/01,06:40,0.383,0.232,0.402,0.369,0.359,0.189,0.160,north-northwest,4.7,No
2016/10/01,06:50,0.379,0.233,0.399,0.369,0.359,0.189,0.160,north,6.7,Yes
2016/10/01,07:00,0.381,0.233,0.401,0.369,0.358,0.189,0.161,north,6.6,Yes
2016/10/01,07:10,0.379,0.234,0.400,0.368,0.360,0.188,0.160,north,5.6,Yes
2016/10/01,07:20,0.382,0.232,0.400,0.368,0.359,0.189,0.161,north,8.9,No
2016/10/01,07:30,0.379,0.231,0.400,0.369,0.359,0.188,0.162,north,7.5,No
2016/10/01,07:40,0.383,0.232,0.400,0.367,0.360,0.190,0.161,north-northeast,5.5,No
2016/10/01,07:50,0.380,0.232,0.401,0.370,0.358,0.188,0.161,north,5.8,No
2016/10/01,08:00,0.382,0.233,0.399,0.365,0.361,0.188,0.161,north,5.1,No
2016/10/01,08:10,0.380,0.231,0.401,0.369,0.359,0.190,0.161,north,5.4,No
2016/10/01,08:20,0.381,0.233,0.398,0.366,0.361,0.189,0.161,north,6.0,No
2016/10/01,08:30,0.381,0.231,0.402,0.370,0.358,0.189,0.161,north,5.6,No
2016/10/01,08:40,0.379,0.234,0.400,0.368,0.360,0.188,0.161,north,5.3,No
2016/10/01,08:50,0.382,0.232,0.399,0.368,0.360,0.188,0.162,north,5.3,Yes
2016/10/01,09:00,0.379,0.231,0.400,0.369,0.359,0.189,0.161,north,5.0,No
2016/10/01,09:10,0.383,0.234,0.397,0.366,0.360,0.188,0.160,north-northwest,4.1,No
2016/10/01,09:20,0.380,0.231,0.402,0.370,0.359,0.189,0.162,north,3.6,No
2016/10/01,09:30,0.378,0.232,0.400,0.367,0.358,0.188,0.161,north,4.5,No
2016/10/01,09:40,0.383,0.232,0.398,0.364,0.361,0.188,0.160,north-northeast,5.0,Yes
2016/10/01,09:50,0.381,0.232,0.401,0.369,0.357,0.188,0.162,north-northeast,5.6,No
2016/10/01,10:00,0.378,0.232,0.398,0.368,0.356,0.188,0.160,north-northeast,6.3,No
2016/10/01,10:10,0.383,0.233,0.397,0.365,0.360,0.188,0.160,north-northeast,6.3,No
2016/10/01,10:20,0.382,0.232,0.401,0.363,0.361,0.188,0.159,north-northeast,5.2,No
2016/10/01,10:30,0.377,0.230,0.401,0.368,0.359,0.188,0.160,north-northeast,4.0,No
2016/10/01,10:40,0.380,0.230,0.396,0.371,0.357,0.189,0.159,north-northeast,6.4,No
2016/10/01,10:50,0.383,0.233,0.400,0.367,0.357,0.188,0.161,north-northeast,6.8,No
2016/10/01,11:00,0.381,0.233,0.403,0.366,0.362,0.189,0.161,north-northeast,5.7,No
2016/10/01,11:10,0.377,0.230,0.397,0.370,0.360,0.188,0.160,north-northeast,7.0,No
2016/10/01,11:20,0.383,0.231,0.397,0.370,0.357,0.188,0.160,north-northeast,5.4,No
2016/10/01,11:30,0.381,0.233,0.402,0.367,0.357,0.189,0.160,northeast,5.3,No
2016/10/01,11:40,0.380,0.232,0.402,0.365,0.362,0.188,0.161,north-northeast,5.4,No
2016/10/01,11:50,0.379,0.231,0.398,0.368,0.361,0.187,0.160,northeast,5.6,No
2016/10/01,12:00,0.383,0.233,0.397,0.370,0.358,0.188,0.160,northeast,5.8,No
2016/10/01,12:10,0.380,0.232,0.401,0.368,0.357,0.189,0.159,northeast,5.5,No
2016/10/01,12:20,0.378,0.231,0.404,0.367,0.356,0.190,0.159,north-northeast,5.5,No
2016/10/01,12:30,0.383,0.231,0.401,0.366,0.361,0.189,0.160,northeast,5.0,No
2016/10/01,12:40,0.383,0.233,0.398,0.372,0.362,0.188,0.162,northeast,4.8,No
2016/10/01,12:50,0.379,0.233,0.397,0.369,0.359,0.188,0.161,north-northeast,4.2,No
2016/10/01,13:00,0.382,0.232,0.404,0.368,0.356,0.189,0.161,northeast,3.9,No
2016/10/01,13:10,0.385,0.231,0.402,0.365,0.361,0.190,0.160,north-northeast,3.8,No
2016/10/01,13:20,0.380,0.232,0.397,0.370,0.362,0.189,0.161,north-northeast,3.7,Yes
2016/10/01,13:30,0.381,0.234,0.397,0.371,0.359,0.188,0.161,northeast,3.6,No
2016/10/01,13:40,0.385,0.232,0.402,0.368,0.356,0.188,0.161,north-northeast,3.7,No
2016/10/01,13:50,0.380,0.233,0.404,0.367,0.361,0.189,0.160,northeast,4.0,No
2016/10/01,14:00,0.382,0.233,0.399,0.371,0.361,0.190,0.161,northeast,4.3,No
2016/10/01,14:10,0.384,0.232,0.398,0.371,0.358,0.189,0.161,northeast,3.7,No
2016/10/01,14:20,0.381,0.231,0.398,0.368,0.358,0.187,0.161,north-northeast,3.9,No
2016/10/01,14:30,0.382,0.230,0.403,0.370,0.357,0.188,0.161,northeast,4.4,No
2016/10/01,14:40,0.383,0.233,0.402,0.373,0.362,0.190,0.161,northeast,3.5,No
2016/10/01,14:50,0.379,0.233,0.399,0.368,0.361,0.190,0.161,north-northeast,3.2,No
2016/10/01,15:00,0.382,0.232,0.403,0.370,0.358,0.188,0.160,northeast,3.6,No
2016/10/01,15:10,0.382,0.233,0.404,0.372,0.361,0.189,0.162,north-northeast,3.7,No
2016/10/01,15:20,0.381,0.234,0.401,0.368,0.363,0.190,0.161,north-northeast,3.9,No
2016/10/01,15:30,0.383,0.233,0.400,0.368,0.360,0.189,0.160,north,3.6,No
2016/10/01,15:40,0.382,0.234,0.402,0.371,0.358,0.190,0.161,north,2.6,No
2016/10/01,15:50,0.382,0.232,0.401,0.370,0.362,0.189,0.161,north,2.5,No
2016/10/01,16:00,0.383,0.233,0.404,0.371,0.360,0.189,0.161,north,2.2,No
2016/10/01,16:10,0.382,0.234,0.403,0.369,0.360,0.190,0.163,north,2.8,No
2016/10/01,16:20,0.382,0.233,0.400,0.371,0.363,0.189,0.161,north-northwest,2.5,No
2016/10/01,16:30,0.383,0.234,0.403,0.370,0.359,0.190,0.162,north,1.6,No
2016/10/01,16:40,0.380,0.233,0.400,0.368,0.362,0.189,0.161,north,2.2,No
2016/10/01,16:50,0.384,0.233,0.403,0.371,0.362,0.189,0.159,north,2.0,No
2016/10/01,17:00,0.381,0.233,0.403,0.367,0.359,0.189,0.161,north,1.3,No
2016/10/01,17:10,0.385,0.233,0.400,0.371,0.362,0.189,0.161,north,1.0,No
2016/10/01,17:20,0.384,0.234,0.402,0.368,0.359,0.189,0.161,north,1.4,No
2016/10/01,17:30,0.383,0.233,0.401,0.371,0.362,0.189,0.161,north,1.8,No
2016/10/01,17:40,0.384,0.234,0.402,0.370,0.360,0.190,0.162,north,1.9,No
2016/10/01,17:50,0.382,0.233,0.401,0.372,0.363,0.189,0.161,north,1.0,No
2016/10/01,18:00,0.384,0.235,0.403,0.371,0.358,0.190,0.162,-,CALM,No
2016/10/01,18:10,0.381,0.232,0.402,0.371,0.362,0.189,0.160,north,0.8,No
2016/10/01,18:20,0.384,0.234,0.404,0.371,0.360,0.190,0.162,north-northeast,0.7,No
2016/10/01,18:30,0.381,0.232,0.402,0.371,0.362,0.189,0.162,-,CALM,No
2016/10/01,18:40,0.384,0.234,0.404,0.371,0.361,0.189,0.161,north,1.3,No
2016/10/01,18:50,0.382,0.233,0.401,0.369,0.362,0.190,0.161,north,1.9,No
2016/10/01,19:00,0.385,0.235,0.402,0.371,0.360,0.189,0.161,north-northwest,1.0,No
2016/10/01,19:10,0.382,0.234,0.403,0.369,0.361,0.189,0.161,north-northwest,2.4,No
2016/10/01,19:20,0.385,0.234,0.404,0.372,0.359,0.190,0.162,north-northwest,2.6,No
2016/10/01,19:30,0.382,0.232,0.403,0.369,0.362,0.189,0.162,northwest,1.4,No
2016/10/01,19:40,0.385,0.234,0.403,0.372,0.359,0.190,0.161,north,1.6,No
2016/10/01,19:50,0.381,0.234,0.403,0.369,0.362,0.190,0.162,north,2.1,No
2016/10/01,20:00,0.384,0.234,0.403,0.374,0.359,0.190,0.162,north,3.1,No
2016/10/01,20:10,0.381,0.233,0.403,0.369,0.361,0.190,0.162,north,2.0,No
2016/10/01,20:20,0.384,0.234,0.403,0.371,0.361,0.189,0.162,north,2.4,No
2016/10/01,20:30,0.382,0.234,0.404,0.370,0.360,0.190,0.161,north-northwest,2.2,No
2016/10/01,20:40,0.383,0.234,0.401,0.371,0.361,0.190,0.162,north-northeast,1.9,No
2016/10/01,20:50,0.382,0.233,0.403,0.369,0.360,0.191,0.161,north-northeast,1.9,No
2016/10/01,21:00,0.383,0.234,0.400,0.372,0.360,0.189,0.162,north-northeast,2.2,No
2016/10/01,21:10,0.384,0.233,0.404,0.369,0.360,0.189,0.162,north,3.6,No
2016/10/01,21:20,0.382,0.234,0.400,0.371,0.361,0.190,0.162,north,1.6,No
2016/10/01,21:30,0.383,0.233,0.404,0.370,0.359,0.190,0.162,north,3.5,No
2016/10/01,21:40,0.382,0.234,0.401,0.370,0.363,0.189,0.162,north,7.0,No
2016/10/01,21:50,0.382,0.234,0.403,0.370,0.358,0.190,0.161,north,3.9,No
2016/10/01,22:00,0.381,0.233,0.401,0.371,0.362,0.189,0.163,north,4.1,No
2016/10/01,22:10,0.384,0.234,0.403,0.372,0.361,0.189,0.162,north,3.2,No
2016/10/01,22:20,0.380,0.234,0.403,0.369,0.360,0.190,0.161,north,3.3,No
2016/10/01,22:30,0.385,0.234,0.400,0.372,0.362,0.190,0.162,north,3.5,No
2016/10/01,22:40,0.382,0.232,0.404,0.369,0.360,0.189,0.161,north,3.1,No
2016/10/01,22:50,0.383,0.234,0.401,0.373,0.361,0.190,0.161,north,3.9,No
2016/10/01,23:00,0.383,0.233,0.404,0.368,0.358,0.188,0.161,north,2.8,No
2016/10/01,23:10,0.383,0.234,0.401,0.371,0.362,0.189,0.162,north,2.2,No
2016/10/01,23:20,0.382,0.232,0.404,0.369,0.359,0.188,0.161,north,3.3,No
2016/10/01,23:30,0.383,0.233,0.401,0.371,0.361,0.190,0.162,north,2.7,No
2016/10/01,23:40,0.385,0.233,0.403,0.371,0.360,0.190,0.161,north,3.9,No
2016/10/01,23:50,0.380,0.233,0.401,0.369,0.359,0.189,0.162,north,3.6,No
